Regional Weather Roundup
Issued by NWS Grand Forks, ND

Home | Current Version | Previous Version | Text Only | Print | Product List | Glossary Off
Versions: 1 2 3 4 5 6 7 8 9 10 11 12 13 14 15 16 17 18 19 20 21 22 23 24 25 26 27 28 29 30 31 32 33 34 35 36 37 38 39 40 41 42 43 44 45 46 47 48 49 50

973
ASUS43 KFGF 242010
RWRFGF
PRAIRIE TO PINES  WEATHER ROUNDUP
NATIONAL WEATHER SERVICE EASTERN NORTH DAKOTA/GRAND FORKS ND
200 PM CST SAT FEB 24 2018

 **SATELLITE DATA USED TO AUGMENT SKY COVER AT AUTOMATED STATIONS**
 *****  WEATHER ACROSS EASTERN NORTH DAKOTA  *****

CITY           SKY/WX    TMP DP  RH WIND       PRES   REMARKS
GRAND FORKS    CLOUDY    14   9  80 S15       29.88F WCI  -1
GRAND FRKS AFB PTSUNNY   15   9  74 S14       29.85F WCI   1
GRAND FRKS NWS   N/A     13   9  83 S14       29.85F WCI  -2
DEVILS LAKE    FAIR      22  15  75 S12       29.75F WCI  10
FARGO          CLOUDY    16   6  65 SE9       29.89F WCI   4
WAHPETON ARPT  CLOUDY   N/A N/A N/A E8        29.86F
$$

 ***** WEATHER ACROSS CENTRAL AND WESTERN NORTH DAKOTA  *****

CITY           SKY/WX    TMP DP  RH WIND       PRES   REMARKS
BISMARCK       LGT SNOW  20  15  81 S9        29.73F WCI   9
MINOT          FLURRIES  21  13  71 S14       29.66F WCI   8
JAMESTOWN      LGT SNOW  15  11  83 S10       29.76F FOG     WCI   2
MINOT AFB      PTSUNNY   20  13  74 SW8         N/A  HAZE    WCI  10
GARRISON         N/A     19  14  81 S12       29.67F WCI   7
WILLISTON      CLOUDY    18   6  59 SW10      29.66F WCI   6
DICKINSON      FAIR      22   9  57 W9        29.63F WCI  12
HETTINGER      FAIR      18   8  65 W10       29.69F WCI   6
$$

 *****  OTHER AIRPORT OBSERVATIONS IN OUR AREA  *****

CITY           SKY/WX    TMP DP  RH WIND       PRES   REMARKS
WALHALLA       FAIR      28  18  64 S14G22    29.80F WCI  17
GRAFTON AIRPOR FAIR      16  10  79 SE16      29.88F WCI   0
VALLEY CITY AR LGT SNOW  16  16 100 S8        29.81F WCI   5
CANDO          MOCLDY    23  16  74 S16       29.75F WCI  10
CAVALIER APRT    N/A     21  16  79 S17       29.82F WCI   7
GWINNER        FOG       18  16  93 E8        29.82F VSB 1/4 WCI   7
SHEYENNE NWR     N/A     17  15  91 SE7       29.95S WCI   8
ROLLA          FAIR      18  14  86 S20       29.69F FOG     WCI   1
 ***** THE ABOVE OBSERVATIONS ARE NON NWS ARE NOT QUALITY
       CONTROLLED AND MAY MIS-REPORT RAIN FOR SNOW...
$$

  *****  WEATHER ACROSS NORTHERN MINNESOTA  *****

CITY           SKY/WX    TMP DP  RH WIND       PRES   REMARKS
FLAG ISLAND    FAIR      18  10  73 SE8       29.90F WCI   7
WARROAD        FAIR      27   9  46 S6        29.89F WCI  20
ROSEAU         FAIR      21  10  63 S16       29.90F WCI   7
HALLOCK        FAIR      16  10  79 S20       29.88F WCI  -1
THF RVR FALLS  FAIR      20   9  62 S13       29.90F WCI   7
BAUDETTE       FAIR      24   8  50 S12       29.90F WCI  13
WASKISH        CLOUDY    27   9  46 S7        29.92F WCI  19
CROOKSTON      FAIR      12   7  79 S12       29.91F WCI  -2
STEPHEN NDAWN    N/A     12   7  79 S14         N/A  WCI  -3
GREENBUSH NDAW   N/A     18   7  62 S18         N/A  WCI   2
$$
  *****  WEATHER ACROSS CENTRAL AND WEST MINNESOTA  *****

CITY           SKY/WX    TMP DP  RH WIND       PRES   REMARKS
FOSSTON        FAIR      23   9  54 S7        29.89F WCI  15
BEMIDJI        FAIR      19   9  65 SE6       29.91F WCI  11
PARK RAPIDS    CLOUDY    20  10  65 E3        29.89F
ELBOW LAKE     LGT SNOW  20  14  77 NE8       29.85F WCI  11
WADENA         FAIR      18   9  68 E7        29.88F WCI   8
DETROIT LAKES  FAIR      19  10  68 SE13      29.89F WCI   7
MOORHEAD       FAIR      12   7  79 S5        29.90F WCI   4
FERGUS FALLS   FAIR      19  12  73 E5        29.87F WCI  13
MORRIS MN      LGT SNOW  18  18 100 NE6       29.82F VSB 3/4 WCI   9
STAPLES        PTSUNNY   19   9  63 E5        29.89F WCI  13
$$
  *****  WEATHER ELSEWHERE ACROSS MINNESOTA  *****

CITY           SKY/WX    TMP DP  RH WIND       PRES   REMARKS
DULUTH         FAIR      26  14  60 SE8       29.94F WCI  18
INTRNTL FALLS  FAIR      28   8  43 S8        29.94F WCI  20
ELY            FAIR      28  12  50 SE13      29.95F WCI  18
CLOQUET        FAIR      27  12  54 E6        29.93F WCI  20
WHEATON        SNOW      12   9  85 E8        29.87F VSB 1/2 WCI   1
BRAINERD       CLOUDY    24   8  50 E5        29.92F WCI  18
HIBBING        FAIR      22  10  60 E9        29.94F WCI  12
ALEXANDRIA     HVY SNOW  21  18  88 NE10      29.82F VSB 1/4 WCI  10
SAINT CLOUD    CLOUDY    24  18  77 NE8       29.88F WCI  15
MINNEAPOLIS    LGT SNOW  27  22  81 NE9       29.86F WCI  18
$$

  *****  WEATHER ACROSS SOUTH DAKOTA  *****

CITY           SKY/WX    TMP DP  RH WIND       PRES   REMARKS
SIOUX FALLS    LGT SNOW  20  17  88 SE12      29.72F FOG     WCI   8
BROOKINGS      LGT SNOW  23  19  86 SE15      29.69F FOG     WCI  10
WATERTOWN      SNOW      20  18  92 E8        29.68F VSB 1/2 WCI  10
HURON          CLOUDY    19  15  84 CALM      29.73F
SISSETON         N/A     14  11  87 E8        29.81F WCI   3
ABERDEEN       SNOW      18  14  84 N9        29.78F VSB 1/4 WCI   7
MITCHELL       CLOUDY    17  13  84 NW8       29.74F WCI   7
PIERRE         LGT SNOW  16  12  84 NE7       29.72F FOG     WCI   6
MOBRIDGE       SNOW      21  16  81 CALM      29.71F VSB 1/2
RAPID CITY     FAIR      27  16  63 N23       29.66F WCI  12
$$

  *****  SOME WEATHER IN NEARBY STATES *****

CITY           SKY/WX    TMP DP  RH WIND       PRES   REMARKS
GLASGOW MT     CLOUDY    24  15  68 W15       29.62F WCI  11
GREAT FALLS MT FAIR      26  13  57 SW14      29.68F WCI  14
CHEYENNE WY    FAIR      25   3  38 NW23G44   29.72R WCI  10
SCOTTSBLUFF NE FAIR      31  12  45 NW31G39   29.74R WCI  16
OMAHA NE       LGT SNOW  29  27  92 N3        29.76F VSB 1
DES MOINES IA  DRZL/FOG  34  33  96 E9        29.70F VSB 1
DAVENPORT IA   CLOUDY    37  34  89 E16       29.84F FOG
CHICAGO IL     CLOUDY    40  32  73 E13       29.95F
EAU CLAIRE WI  CLOUDY    30  24  78 E9        29.90F WCI  22
LA CROSSE WI   CLOUDY    36  27  69 E13       29.88F
$$

  *****  SOME NATIONAL WEATHER *****

CITY           SKY/WX    TMP DP  RH WIND       PRES   REMARKS
LA GUARDIA NY  CLOUDY    51  39  63 NW7       30.14R
RALEIGH NC     PTSUNNY   76  60  57 SW13G22   30.10F
ATLANTA GA     FAIR      78  58  49 SW17G24   30.08F
NEW ORLEANS LA FAIR      80  70  71 S16G26    30.00F
OKLAHOMA CITY  PTSUNNY   49  41  74 W10       29.82F
ALBUQUERQUE NM FAIR      40   4  22 NW13      30.04F
SALT LAKE CITY CLOUDY    29  14  53 S16G25    30.04F WCI  17
LOS ANGELES CA FAIR      59  25  27 SW10      30.30F
BOISE ID       SNOW      28  25  88 SE15      29.94F VSB 1/2 WCI  16
SEATTLE WA     CLOUDY    41  31  67 N3        30.11R
$$

*** WEATHER ACROSS MANITOBA...SASKATCHEWAN AND ONTARIO ***
                ***ONTARIO***

CITY           SKY/WX    TMP DP  RH WIND       PRES   REMARKS
GERALDTON      MOSUNNY   28  12  50 S10       30.03F WCI  19
THUNDER BAY    MOSUNNY   23  14  68 E10       30.05F WCI  12
SIOUX LOOKOUT  SUNNY     28   7  40 SW13      29.89F WCI  18
TORONTO        PTSUNNY   39  25  56 E5        30.19F
BIG TROUT LK   SUNNY     25  12  58 SW14G22   29.69F WCI  13
PICKLE LAKE    MOSUNNY   28   7  40 S13G18    29.84F WCI  18
DRYDEN         SUNNY     28   9  43 S16       29.88F WCI  17
KENORA         PTSUNNY   23   5  46 SW17G23   29.88F WCI   9
$$
                *** MANITOBA***

CITY           SKY/WX    TMP DP  RH WIND       PRES   REMARKS
BRANDON        PTSUNNY   21  10  63 S12       29.68F WCI   9
DAUPHIN        SUNNY     28   9  43 SW13G18   29.61F WCI  18
ISLAND LAKE    MOSUNNY   27   9  46 SW14G22   29.59F WCI  15
PILOT MOUND      N/A     21  16  79 S23         N/A  WCI   5
THE PAS        CLOUDY    19   7  58 SW9       29.51F WCI   9
THOMPSON       PTSUNNY   19   7  58 SW8       29.48S WCI   9
WINNIPEG       PTSUNNY   19  12  73 S28       29.80F WCI   1
LYNN LAKE      LGT SNOW  21  16  79 N5        29.42S WCI  15
CHURCHILL      FLURRIES  14   9  79 N14       29.43R WCI  -1
GILLAM         CLOUDY    18   7  62 SW12      29.49F WCI   5
$$
                ***SASKATCHEWAN***

CITY           SKY/WX    TMP DP  RH WIND       PRES   REMARKS
ESTEVAN        MOSUNNY   18   7  62 SW15      29.61F WCI   3
KINDERSLEY     PTSUNNY   27  14  59 W10       29.54F WCI  17
LLOYDMINSTER   MOSUNNY   27  18  69 NW15G22   29.49F WCI  15
PRINCE ALBERT  PTSUNNY   25  12  58 S5        29.49F WCI  19
REGINA         CLOUDY    21  14  73 SW5       29.54F WCI  15
YORKTON        SUNNY     18   9  68 S10       29.55F WCI   6
N. BATTLEFORD  PTSUNNY   28  14  54 W10       29.52F WCI  19
LA RONGE       FLURRIES  21  14  73 W3        29.47S
SASKATOON      PTSUNNY   28  16  59 W13       29.52F WCI  18
SWIFT CURRENT  NOT AVBL
$$
NOTE: THESE ARE AUTOMATED STATIONS WITH LIMITED QUALITY CONTROL
      "FAIR" INDICATES FEW OR NO CLOUDS BELOW 12,000 FEET WITH NO
      SIGNIFICANT WEATHER AND/OR OBSTRUCTIONS TO VISIBILITY.
      SKY/WX - SKY CONDITION AND SIGNIFICANT WEATHER.
      TMP - AIR TEMPERATURE.    DP   - DEWPOINT TEMPERATURE.
      RH  - RELATIVE HUMIDITY.  PRES - PRESSURE.
      HX  - HEAT INDEX.         WCI  - WIND CHILL INDEX.
$




USA.gov is the U.S. government's official web portal to all federal, state and local government web resources and services.